Regional Weather Roundup
Issued by NWS Goodland, KS

Home | Current Version | Previous Version | Text Only | Print | Product List | Glossary Off
Versions: 1 2 3 4 5 6 7 8 9 10 11 12 13 14 15 16 17 18 19 20 21 22 23 24 25 26 27 28 29 30 31 32 33 34 35 36 37 38 39 40 41 42 43 44 45 46 47 48 49 50

000
ASUS43 KGLD 270308
RWRGLD

GOODLAND FORECAST AREA HOURLY WEATHER ROUNDUP
NATIONAL WEATHER SERVICE GOODLAND KS
900 PM MDT TUE JUL 26 2016

...OFFICIAL OBSERVATIONS...

CITY           SKY/WX    TMP DP  RH WIND       PRES   REMARKS
GOODLAND KS    CLOUDY    69  61  75 S13       30.08R
HILL CITY KS   CLOUDY    79  66  64 SE8       30.02R
IMPERIAL NEB   CLOUDY    79  65  62 S5        30.00R
MCCOOK NEB     MOCLDY    81  64  56 SE14      29.99R
AKRON CO       CLEAR     72  51  47 S12       30.10R
BURLINGTON CO  CLOUDY    68  57  68 E12       30.09S
LIMON CO       NOT AVBL
$$

...UNOFFICIAL OBSERVATIONS...

CITY           SKY/WX    TMP DP  RH WIND       PRES   REMARKS
COLBY KS       MOCLDY    73  63  68 S10       30.09R
LENORA KS        N/A     78  32  18 MISG        N/A
NORTON KS      CLEAR     79  59  50 SE7       30.01R
YUMA CO          N/A     70  55  58 SW6         N/A
$$



USA.gov is the U.S. government's official web portal to all federal, state and local government web resources and services.